Flag for U.S.A. Weather past 2 weeks in Galveston, Texas, U.S.A.

Now
83 °F

Clear.


Feels Like: 93 °F
Forecast: 80 / 94 °F
Wind: 12 mph from West

Location: Scholes Field

Current Time: Jul 30, 2015 at 6:08:48 AM

Latest Report: Jul 30, 2015 at 4:52 AM


Visibility: 10 mi

Pressure: 30.02 "Hg

Humidity: 85%

Dew point: 78 °F

Location of GalvestonLocation

Historic Weather in Galveston — Graph

°F

Galveston temperature yesterday

Maximum temperature yesterday: 92 °F (at 2:52 PM)
Minimum temperature yesterday: 82 °F (at 5:52 AM)
Average temperature yesterday: 87 °F

Past Weeks' High & Low Weather Summary

 TemperatureHumidityPressure
High92 °F (Jul 17, 1:52 PM)91% (Jul 20, 4:52 AM)30.08 "Hg (Jul 20, 4:52 AM)
Low81 °F (Jul 15, 6:52 AM)59% (Jul 26, 10:52 AM)29.89 "Hg (Jul 21, 6:52 PM)
Average87 °F75%29.98 "Hg
* Reported Jul 15 4:52 AM — Jul 30 4:52 AM, Galveston, Weather by CustomWeather, © 2015

Note: Actual official high and low records may vary slightly from our data, if they occured in-between our weather recording intervals... More about our weather records

Advertising

Galveston weather history for previous 24 hours

 ConditionsComfort  
Time TempWeatherWind HumidityBarometerVisibility
4:52 AM
Thu, Jul 30
83 °FClear.12 mph85%30.02 "Hg10 mi
3:52 AM83 °FPassing clouds.9 mph85%30.01 "Hg10 mi
2:52 AM83 °FClear.6 mph85%30.02 "Hg10 mi
1:52 AM84 °FClear.7 mph80%30.03 "Hg10 mi
12:52 AM84 °FClear.5 mph83%30.04 "Hg10 mi
11:52 PM
Wed, Jul 29
84 °FClear.7 mph80%30.05 "Hg10 mi
10:52 PM85 °FClear.8 mph80%30.04 "Hg10 mi
9:52 PM85 °FClear.10 mph80%30.03 "Hg10 mi
8:52 PM86 °FSunny.8 mph77%30.01 "Hg10 mi
7:52 PM87 °FSunny.10 mph72%30.01 "Hg10 mi
6:52 PM89 °FSunny.14 mph68%30.00 "Hg10 mi
5:52 PM90 °FSunny.14 mph63%29.99 "Hg10 mi
4:52 PM91 °FSunny.14 mph64%30.01 "Hg10 mi
3:52 PM91 °FPassing clouds.13 mph61%30.02 "Hg10 mi
2:52 PM92 °FPassing clouds.10 mph60%30.04 "Hg10 mi
1:52 PM91 °FPassing clouds.9 mph61%30.06 "Hg10 mi
12:52 PM91 °FPassing clouds.8 mph64%30.06 "Hg10 mi
11:52 AM91 °FPassing clouds.8 mph64%30.07 "Hg10 mi
10:52 AM90 °FPassing clouds.5 mph59%30.07 "Hg10 mi
9:52 AM88 °FSunny.5 mph70%30.06 "Hg10 mi
8:52 AM86 °FSunny.5 mph75%30.05 "Hg10 mi
7:52 AM85 °FSunny.5 mph80%30.04 "Hg10 mi
6:52 AM82 °FClear.No wind85%30.03 "Hg10 mi
Weather by CustomWeather, © 2015

See weather overviewHow to use our weather pages